Regional Weather Roundup
Issued by NWS

Home | Current Version | Previous Version | Graphics & Text | Print | Product List | Glossary On
Versions: 1 2 3 4 5 6 7 8 9 10 11 12 13 14 15 16 17 18 19 20 21 22 23 24 25 26 27 28 29 30 31 32 33 34 35 36 37 38 39 40 41 42 43 44 45 46 47 48 49 50
000
ASUS44 KMEG 212000
RWRTN
TENNESSEE HOURLY STATE WEATHER ROUNDUP
NATIONAL WEATHER SERVICE MEMPHIS TN
200 PM CST WED FEB 21 2018

TNZ002-004-019-021-049-052-054-088>092-212100-
WEST TENNESSEE

CITY           SKY/WX    TMP DP  RH WIND       PRES   REMARKS
MEMPHIS INTL   LGT RAIN  47  46  97 N12       30.33F FOG
NWS MEMPHIS      N/A     48 N/A N/A MISG        N/A
JACKSON        LGT RAIN  49  48  97 N12       30.34F FOG
DYERSBURG      RAIN      43  42  97 NE12      30.36F
$$

TNZ008-025-027-028-033-062-065-066-212100-
NORTH MIDDLE TENNESSEE

CITY           SKY/WX    TMP DP  RH WIND       PRES   REMARKS
NASHVILLE      LGT RAIN  56  54  93 N8        30.32F
CLARKSVILLE    CLOUDY    47  43  86 N17       30.37S
SMYRNA         CLOUDY    58  56  93 N10       30.31F
CROSSVILLE     FAIR      74  59  59 S15G24    30.31F
$$

TNZ061-075-076-078-094-096-097-212100-
SOUTH MIDDLE TENNESSEE

CITY           SKY/WX    TMP DP  RH WIND       PRES   REMARKS
WINCHESTER     MOSUNNY   81  61  50 SW14      30.26F
$$

TNZ017-018-042-046-047-212100-
NORTHEAST TENNESSEE

CITY           SKY/WX    TMP DP  RH WIND       PRES   REMARKS
TRI CITIES     FAIR      81  58  45 SW12G20   30.31F
$$

TNZ012-013-036-069-073-074-212100-
CENTRAL EAST TENNESSEE

CITY           SKY/WX    TMP DP  RH WIND       PRES   REMARKS
KNOXVILLE      FAIR      78  65  63 SW20G25   30.28F
OAK RIDGE      CLOUDY    79  64  60 SW7       30.30F
$$

TNZ083-085-099-212100-
SOUTHEAST TENNESSEE

CITY           SKY/WX    TMP DP  RH WIND       PRES   REMARKS
CHATTANOOGA    FAIR      78  61  55 S18       30.29F
$$

SKY/WX REPORTED AS FAIR MEANS FEW OR NO CLOUDS BELOW
12 THOUSAND FEET.




USA.gov is the U.S. government's official web portal to all federal, state and local government web resources and services.